Location: Newark
(49.8969°N, 3.3422°E)
Time: 21:10:42
(UTC+00:00)

A-11 Canister half - Pass Details

Date: 31 January 2020
Orbit: 1517 x 1683 km, 47.2° (Epoch: 19 February)

Event Time Altitude Azimuth Distance (km) Brightness Sun altitude
Rises 22:04:45 0° 232° (SW) 4,777 11.7 -50.0°
Enters shadow 22:05:48 - 231° (SW) 4,447 11.5 -50.2°
Reaches altitude 10° 22:07:57 10° 228° (SW) 3,771 - -50.4°
Maximum altitude 22:17:07 56° 154° (SSE) 1,796 - -51.4°
Drops below altitude 10° 22:26:04 10° 80° (E) 3,689 - -52.3°
Sets 22:29:09 0° 76° (ENE) 4,666 - -52.7°
